Newberry, MI

12:37 AM EST on December 05, 2016 (GMT -0500)
Luce County

Weather History for KERY - March, 2013

Change the Weather History Date:

Friday, March 8, 2013

  Actual Average Record
Temperature  
Mean Temperature 20 °F -  
Max Temperature 33 °F 32 °F 48 °F (1968)
Min Temperature 8 °F 12 °F -14 °F (1943)
Degree Days  
Heating Degree Days 44    
Moisture  
Dew Point 22 °F    
Average Humidity 88    
Maximum Humidity 100    
Minimum Humidity 70    
Precipitation  
Precipitation 0.00 in - - ()
Sea Level Pressure  
Sea Level Pressure 30.41 in    
Wind  
Wind Speed 4 mph (South)    
Max Wind Speed 13 mph    
Max Gust Speed 16 mph    
Visibility 9 miles    
Events Fog    
Averages and records for this station are not official NWS values.
T = Trace of Precipitation, MM = Missing Value Source: NWS Daily Summary

Daily Weather History Graph

Daily Weather History Graph

Search for Another Location

Airport or City:

Trip Planner

Search our weather history database for the weather conditions in past years. The results will help you decide how hot, cold, wet, or windy it might be!

Date:

Astronomy

Mar. 08, 2013 Rise Set
Actual Time 7:07 AM EST 6:38 PM EST
Civil Twilight 6:37 AM EST 7:08 PM EST
Nautical Twilight 6:02 AM EST 7:43 PM EST
Astronomical Twilight 5:27 AM EST 8:18 PM EST
Moon 5:00 AM EST (3/8) 3:24 PM EST (3/8)
Length of Visible Light 12h 30m
Length of Day
11h 30m
Waning Crescent, 12% of the Moon is Illuminated
Mar 8
Waning Crescent
Mar 11
New
Mar 19
First Quarter
Mar 27
Full
Apr 3
Last Quarter

Hourly Weather History & Observations

Time (EST) Temp. Windchill Dew Point Humidity Pressure Visibility Wind Dir Wind Speed Gust Speed Precip Events Conditions
12:15 AM 26.6 °F - 24.8 °F 93% 30.42 in 10.0 mi Calm Calm - N/A   Overcast
12:34 AM 26.6 °F - 23.0 °F 86% 30.42 in 10.0 mi Calm Calm - N/A   Mostly Cloudy
1:15 AM 21.2 °F - 19.4 °F 93% 30.43 in 10.0 mi Calm Calm - N/A   Clear
1:34 AM 17.6 °F 12.3 °F 15.8 °F 93% 30.43 in 10.0 mi WSW 3.5 mph - N/A   Clear
1:55 AM 19.4 °F - 17.6 °F 93% 30.43 in 10.0 mi Calm Calm - N/A   Clear
2:14 AM 21.2 °F - 19.4 °F 93% 30.44 in 10.0 mi Calm Calm - N/A   Clear
2:34 AM 15.8 °F - 14.0 °F 93% 30.44 in 0.8 mi Calm Calm - N/A   Mist
2:55 AM 17.6 °F - 15.8 °F 93% 30.44 in 0.5 mi Calm Calm - N/A Fog Light Freezing Fog
3:14 AM 15.8 °F - 12.2 °F 86% 30.44 in 0.2 mi Calm Calm - N/A Fog Light Freezing Fog
3:34 AM 15.8 °F - 14.0 °F 93% 30.44 in 0.5 mi Calm Calm - N/A Fog Light Freezing Fog
3:55 AM 14.0 °F - 12.2 °F 93% 30.44 in 0.2 mi Calm Calm - N/A Fog Light Freezing Fog
4:14 AM 14.0 °F - 12.2 °F 93% 30.44 in 0.2 mi Calm Calm - N/A Fog Light Freezing Fog
4:35 AM 12.2 °F - 8.6 °F 85% 30.44 in 0.2 mi Calm Calm - N/A Fog Light Freezing Fog
4:55 AM 12.2 °F - 10.4 °F 92% 30.44 in 0.2 mi Calm Calm - N/A Fog Light Freezing Fog
5:14 AM 10.4 °F 4.0 °F 8.6 °F 92% 30.44 in 0.8 mi West 3.5 mph - N/A   Mostly Cloudy
5:35 AM 8.6 °F 2.0 °F 5.0 °F 85% 30.45 in 10.0 mi West 3.5 mph - N/A   Scattered Clouds
5:55 AM 12.2 °F - 8.6 °F 85% 30.46 in 10.0 mi Calm Calm - N/A   Mostly Cloudy
6:14 AM 14.0 °F - 10.4 °F 86% 30.46 in 10.0 mi Calm Calm - N/A   Overcast
6:35 AM 15.8 °F - 14.0 °F 93% 30.46 in 10.0 mi Calm Calm - N/A   Overcast
6:54 AM 17.6 °F - 15.8 °F 93% 30.46 in 10.0 mi Calm Calm - N/A   Overcast
7:14 AM 19.4 °F - 17.6 °F 93% 30.47 in 10.0 mi Calm Calm - N/A   Overcast
7:35 AM 21.2 °F - 19.4 °F 93% 30.47 in 10.0 mi Calm Calm - N/A   Overcast
7:54 AM 21.2 °F - 19.4 °F 93% 30.47 in 10.0 mi Calm Calm - N/A   Overcast
8:14 AM 21.2 °F - 19.4 °F 93% 30.47 in 10.0 mi Calm Calm - N/A   Overcast
8:35 AM 23.0 °F - 21.2 °F 93% 30.47 in 10.0 mi Calm Calm - N/A   Overcast
8:54 AM 24.8 °F 20.5 °F 23.0 °F 93% 30.48 in 10.0 mi WSW 3.5 mph - N/A   Overcast
9:15 AM 24.8 °F 20.5 °F 23.0 °F 93% 30.47 in 10.0 mi West 3.5 mph - N/A   Overcast
9:35 AM 24.8 °F - 23.0 °F 93% 30.47 in 10.0 mi Calm Calm - N/A   Overcast
9:54 AM 24.8 °F - 23.0 °F 93% 30.47 in 10.0 mi Calm Calm - N/A   Overcast
10:15 AM 26.6 °F - 24.8 °F 93% 30.47 in 10.0 mi Calm Calm - N/A   Overcast
10:34 AM 26.6 °F - 24.8 °F 93% 30.47 in 10.0 mi Calm Calm - N/A   Overcast
10:54 AM 26.6 °F 20.0 °F 26.6 °F 100% 30.46 in 10.0 mi SSE 5.8 mph - N/A   Overcast
11:15 AM 28.4 °F 20.4 °F 26.6 °F 93% 30.45 in 10.0 mi South 8.1 mph - N/A   Overcast
11:34 AM 30.2 °F 21.9 °F 26.6 °F 86% 30.45 in 10.0 mi South 9.2 mph - N/A   Overcast
11:55 AM 30.2 °F 21.3 °F 26.6 °F 86% 30.45 in 10.0 mi South 10.4 mph - N/A   Overcast
12:15 PM 30.2 °F 21.3 °F 26.6 °F 86% 30.44 in 10.0 mi South 10.4 mph - N/A   Overcast
12:34 PM 30.2 °F 23.4 °F 24.8 °F 80% 30.44 in 10.0 mi South 6.9 mph - N/A   Overcast
12:55 PM 30.2 °F 22.6 °F 24.8 °F 80% 30.44 in 10.0 mi SSW 8.1 mph - N/A   Mostly Cloudy
1:15 PM 30.2 °F 22.6 °F 24.8 °F 80% 30.43 in 10.0 mi South 8.1 mph 16.1 mph N/A   Mostly Cloudy
1:34 PM 32.0 °F 23.6 °F 26.6 °F 80% 30.42 in 10.0 mi South 10.4 mph - N/A   Mostly Cloudy
1:55 PM 32.0 °F 24.8 °F 26.6 °F 80% 30.41 in 10.0 mi SSE 8.1 mph - N/A   Scattered Clouds
2:14 PM 33.8 °F 25.8 °F 26.6 °F 75% 30.40 in 10.0 mi South 10.4 mph - N/A   Scattered Clouds
2:34 PM 33.8 °F 24.8 °F 26.6 °F 75% 30.40 in 10.0 mi South 12.7 mph - N/A   Clear
2:55 PM 33.8 °F 26.4 °F 26.6 °F 75% 30.39 in 10.0 mi SSE 9.2 mph 16.1 mph N/A   Clear
3:14 PM 33.8 °F 25.8 °F 26.6 °F 75% 30.39 in 10.0 mi South 10.4 mph - N/A   Scattered Clouds
3:34 PM 33.8 °F 25.8 °F 26.6 °F 75% 30.39 in 10.0 mi South 10.4 mph - N/A   Scattered Clouds
3:55 PM 33.8 °F 25.3 °F 26.6 °F 75% 30.39 in 10.0 mi South 11.5 mph - N/A   Clear
4:14 PM 33.8 °F 25.8 °F 24.8 °F 70% 30.38 in 10.0 mi South 10.4 mph - N/A   Clear
4:35 PM 33.8 °F 25.8 °F 24.8 °F 70% 30.38 in 10.0 mi South 10.4 mph - N/A   Scattered Clouds
4:55 PM 33.8 °F 25.8 °F 24.8 °F 70% 30.37 in 10.0 mi South 10.4 mph - N/A   Scattered Clouds
5:14 PM 30.2 °F 21.3 °F 24.8 °F 80% 30.37 in 10.0 mi South 10.4 mph 13.8 mph N/A   Scattered Clouds
5:35 PM 30.2 °F 20.8 °F 24.8 °F 80% 30.37 in 10.0 mi South 11.5 mph - N/A   Mostly Cloudy
5:54 PM 30.2 °F 20.8 °F 24.8 °F 80% 30.37 in 10.0 mi South 11.5 mph 16.1 mph N/A   Scattered Clouds
6:15 PM 28.4 °F 19.7 °F 23.0 °F 80% 30.36 in 10.0 mi South 9.2 mph - N/A   Clear
6:35 PM 28.4 °F 19.7 °F 23.0 °F 80% 30.36 in 10.0 mi South 9.2 mph - N/A   Clear
6:54 PM 28.4 °F 19.7 °F 24.8 °F 86% 30.36 in 10.0 mi South 9.2 mph - N/A   Clear
7:15 PM 28.4 °F 19.7 °F 24.8 °F 86% 30.35 in 10.0 mi South 9.2 mph - N/A   Clear
7:35 PM 28.4 °F 19.7 °F 24.8 °F 86% 30.35 in 10.0 mi South 9.2 mph - N/A   Clear
7:54 PM 26.6 °F 16.8 °F 24.8 °F 93% 30.35 in 10.0 mi SSW 10.4 mph - N/A   Clear
8:15 PM 26.6 °F 17.5 °F 24.8 °F 93% 30.34 in 10.0 mi South 9.2 mph - N/A   Clear
8:34 PM 26.6 °F 16.8 °F 24.8 °F 93% 30.35 in 10.0 mi SSW 10.4 mph - N/A   Clear
8:54 PM 26.6 °F 17.5 °F 24.8 °F 93% 30.35 in 10.0 mi SSW 9.2 mph - N/A   Clear
9:15 PM 26.6 °F 16.8 °F 24.8 °F 93% 30.35 in 10.0 mi South 10.4 mph - N/A   Clear
9:34 PM 26.6 °F 17.5 °F 24.8 °F 93% 30.35 in 10.0 mi South 9.2 mph - N/A   Clear
9:55 PM 26.6 °F 17.5 °F 24.8 °F 93% 30.35 in 10.0 mi South 9.2 mph - N/A   Clear
10:14 PM 26.6 °F 16.8 °F 24.8 °F 93% 30.35 in 10.0 mi South 10.4 mph - N/A   Clear
10:35 PM 26.6 °F 17.5 °F 24.8 °F 93% 30.34 in 10.0 mi South 9.2 mph - N/A   Clear
10:54 PM 26.6 °F 17.5 °F 24.8 °F 93% 30.34 in 10.0 mi South 9.2 mph - N/A   Clear
11:15 PM 26.6 °F 18.2 °F 24.8 °F 93% 30.33 in 10.0 mi South 8.1 mph - N/A   Clear
11:34 PM 26.6 °F 18.2 °F 24.8 °F 93% 30.33 in 10.0 mi South 8.1 mph - N/A   Clear
11:54 PM 26.6 °F 19.1 °F 24.8 °F 93% 30.32 in 10.0 mi South 6.9 mph - N/A   Clear